Tracking 17938 objects as of 21-February-2017
HD Live streaming from Space Station
objects crossing your sky now

COSMOS 2251 DEB

Track COSMOS 2251 DEB now!
10-day predictions


NORAD ID: 38196
Int'l Code: 1993-036BSL
Perigee: 618.9 km
Apogee: 914.6 km
Inclination: 73.9 °
Period: 100.0 minutes
Semi major axis: 7137 km
RCS: 0.0033 m2 (small)
Launch date: June 16, 1993
Source: Commonwealth of Independent States (former USSR) (CIS)
Launch site: PLESETSK MISSILE AND SPACE COMPLEX (PKMTR)

Note: This is SATELLITE DEBRIS
Your satellite tracking list
Your tracking list is empty





NASA's NSSDC Master Catalog

Two Line Element Set (TLE):
1 38196U 93036BSL 17052.48748740  .00002410  00000-0  60670-3 0  9994
2 38196  73.8907 106.8180 0207176 241.0624 116.9617 14.39656856311828
Source of the keplerian elements: AFSPC